Regional Weather Roundup
Issued by NWS

Home | Current Version | Previous Version | Graphics & Text | Print | Product List | Glossary Off
Versions: 1 2 3 4 5 6 7 8 9 10 11 12 13 14 15 16 17 18 19 20 21 22 23 24 25 26 27 28 29 30 31 32 33 34 35 36 37 38 39 40 41 42 43 44 45 46 47 48 49 50

000
ASUS43 KMPX 260801
RWRMN
WEATHER ROUNDUP FOR MINNESOTA
NATIONAL WEATHER SERVICE TWIN CITIES/CHANHASSEN MN
300 AM CDT TUE SEP 26 2017


NOTE: "FAIR" INDICATES FEW OR NO CLOUDS BELOW 12,000 FEET WITH NO
SIGNIFICANT WEATHER AND/OR OBSTRUCTIONS TO VISIBILITY. N/A MEANS
CURRENT SKY AND/OR WEATHER CONDITIONS ARE NOT AVAILABLE.

MNZ060>063-068>070-260900-
   Twin Cities Metro

CITY           SKY/WX    TMP DP  RH WIND       PRES   REMARKS
TWIN CITIES    LGT RAIN  58  58 100 NW3       29.93S
ST PAUL        LGT RAIN  59  58  96 VRB3      29.93F
CRYSTAL        LGT RAIN  57  53  86 CALM      29.92F
BLAINE         DRIZZLE   57  57 100 CALM      29.93S
LAKEVILLE      RAIN      57  57 100 CALM      29.93F
EDEN PRAIRIE   LGT RAIN  58  57  97 CALM      29.93R
SOUTH ST PAUL  LGT RAIN  59  58  96 CALM      29.93S
LAKE ELMO      RAIN      59  57  94 CALM      29.93F
$$
MNZ001>005-007-008-013>017-022>024-027-028-260900-
   Northwest Minnesota

CITY           SKY/WX    TMP DP  RH WIND       PRES   REMARKS
BEMIDJI        LGT RAIN  49  49  98 N3        30.02F
HALLOCK          N/A     48  48 100 NE5       30.09F
ROSEAU         DRIZZLE   50  45  81 NE3       30.08F
WARROAD        RAIN      52  46  82 NE14      30.08F
THIEF RVR FALL LGT RAIN  48  48 100 N8        30.08S
CROOKSTON      DRIZZLE   50  48  93 N6        30.08S
FOSSTON        LGT RAIN  48  46  93 NW6       30.05S
DETROIT LAKES  LGT RAIN  50  50 100 NW7       30.04F
MOORHEAD       RAIN      50  48  93 N5        30.06F
PARK RAPIDS    LGT RAIN  52  49  89 N8        30.01S
MAHNOMEN       DRIZZLE   49  48  98 N7        30.04S
$$
MNZ006-009>011-018-025>026-260900-
   North Central Minnesota

CITY           SKY/WX    TMP DP  RH WIND       PRES   REMARKS
BAUDETTE       CLOUDY    50  48  93 NE10      30.06F
FLAG ISLAND    CLOUDY    52  46  82 E9        30.08F
INTL FALLS     CLOUDY    52  47  83 NE8       30.04F
WASKISH        LGT RAIN  48  48 100 NE5       30.04F
BIG FORK       DRIZZLE   52  50  93 N3        30.01F
LONGVILLE      RAIN      52  52 100 N5        29.99F
GRAND RAPIDS   RAIN      52  51  97 N6        29.99F
CRANE LAKE     CLOUDY    50  48  93 CALM      30.05F FOG
ORR            DRIZZLE   52  46  82 CALM      30.00F
WALKER         RAIN      50  49  97 N5        30.01S
$$
MNZ012-019>021-037-260900-
   Northeast Minnesota

CITY           SKY/WX    TMP DP  RH WIND       PRES   REMARKS
DULUTH         RAIN      54  54 100 E14G22    29.95F FOG
ELY            DRIZZLE   52  50  93 NE7       30.01S
HIBBING        LGT RAIN  51  50  96 NE9       29.98F FOG
EVELETH        LGT RAIN  53  51  95 NE8       29.99F
GRAND MARAIS     N/A     56  50  80 NE9       29.99F
$$
MNZ029>031-032-039>041-046>048-054>057-064-260900-
   West Central Minnesota

CITY           SKY/WX    TMP DP  RH WIND       PRES   REMARKS
FERGUS FALLS   LGT RAIN  50  50 100 N8        30.03F
WHEATON        DRIZZLE   50  48  93 NW7       30.06S
ALEXANDRIA     LGT RAIN  53  53 100 N9        30.01S FOG
ELBOW LAKE     LGT RAIN  51  51 100 NW6       30.03S
WADENA         RAIN      50  50 100 N6        30.00S
GLENWOOD       DRIZZLE   52  52 100 N7        30.00S
APPLETON       DRIZZLE   54  52  94 NW7       30.00F
BENSON         DRIZZLE   54  52  94 N8        30.01F
ORTONVILLE     DRIZZLE   50  48  93 N9        30.02F
MADISON        LGT RAIN  54  54 100 NW13      30.01F
WILLMAR        RAIN      55  55 100 NW8       29.98F
$$
MNZ033>034-036-042>043-049>051-058-059-260900-
   Central Minnesota

CITY           SKY/WX    TMP DP  RH WIND       PRES   REMARKS
ST CLOUD       LGT RAIN  55  55 100 N5        29.95F
SAUK CENTRE    RAIN      53  52  97 NW9       29.98S
PAYNESVILLE    HVY RAIN  54  54 100 NW3       29.97S
AITKIN         DRIZZLE   52  50  93 N6        29.95F
PINE RIVER     DRIZZLE   50  48  93 N6        30.02S
BRAINERD       LGT RAIN  53  52  96 N7        29.98S FOG
STAPLES        DRIZZLE   52  52 100 N7        29.99
LITTLE FALLS   HVY RAIN  52  50  93 N5        29.96F
LITCHFIELD     RAIN      55  55 100 N3        29.96F
BUFFALO        RAIN      55  53  92 N3        29.95F
MAPLE LAKE     DRIZZLE   56  55  97 CALM      29.95F
HUTCHINSON     RAIN      56  56  98 CALM      29.96F
$$
MNZ037-044-045-052-053-260900-
   East Central Minnesota

CITY           SKY/WX    TMP DP  RH WIND       PRES   REMARKS
PRINCETON      RAIN      57  55  94 CALM      29.94F
MORA           HVY RAIN  54  52  94 CALM      29.95F
RUSH CITY      LGT RAIN  56  55  95 CALM      29.93F
MOOSE LAKE     RAIN      55  54  94 NE3       29.92F
HINCKLEY       DRIZZLE   55  55 100 CALM      29.93F
CLOQUET        LGT RAIN  55  54  94 E10       29.94F
MCGREGOR       CLOUDY    54  52  94 N8        29.95F
$$
MNZ071>073-080-081-089-090-097-098-260900-
   Southwest Minnesota

CITY           SKY/WX    TMP DP  RH WIND       PRES   REMARKS
MONTEVIDEO     DRIZZLE   54  52  94 N7        30.00S
GRANITE FALLS  RAIN      54  54  98 NW8       30.01S
CANBY          LGT RAIN  51  50  97 W8        30.02F
REDWOOD FALLS  LGT RAIN  55  54  96 NW6       29.96F FOG
OLIVIA         RAIN      54  52  94 NW6       29.97S
PIPESTONE      RAIN      52  50  93 N10       30.01S
WORTHINGTON    LGT RAIN  52  51  97 NW13      29.99S FOG
JACKSON        LGT RAIN  55  55 100 CALM      29.97S
TRACY          DRIZZLE   52  52 100 NW9G16    29.99F
SLAYTON        LGT RAIN  51  44  77 NW12      30.00S
$$
MNZ065>067-074>077-082>085-091>093-260900-
   South Central Minnesota

CITY           SKY/WX    TMP DP  RH WIND       PRES   REMARKS
MANKATO        RAIN      57  56  96 N3        29.94F
NEW ULM        LGT RAIN  55  55 100 N3        29.94F
ST JAMES       RAIN      55  55 100 NW5       29.95F
FAIRMONT       LGT RAIN  57  56  96 NW6       29.95F
FARIBAULT      LGT RAIN  57  57 100 CALM      29.93F
OWATONNA       LGT RAIN  59  57  94 CALM      29.93F
WASECA         DRIZZLE   55  55 100 CALM      29.94F
ALBERT LEA     CLOUDY    63  63 100 CALM      29.93S FOG
$$
MNZ078>079-086>088-094>096-260900-
   Southeast Minnesota

CITY           SKY/WX    TMP DP  RH WIND       PRES   REMARKS
ROCHESTER      FOG       62  61  96 CALM      29.93F VSB 1/4
RED WING       RAIN      63  59  88 W3        29.91F
STANTON        RAIN      60  57  92 CALM      29.91F
DODGE CENTER   LGT RAIN  61  57  88 CALM      29.93F VSB 3/4
WINONA         CLOUDY    66  64  94 NW5       29.91F
AUSTIN         RAIN      63  63 100 CALM      29.93F VSB 1/4
PRESTON        FOG       63  62  96 CALM      29.93S VSB 1/4
$$
ABBREVIATIONS USED IN REMARKS
   TC - TEMPERATURES IN CELSIUS
  WCI - WIND CHILL INDEX
   HX - HEAT INDEX
  VSB - VISIBILITY
$$




USA.gov is the U.S. government's official web portal to all federal, state and local government web resources and services.